,,Stat6,,Stat2,,Stat8,,Stat9,,Stat10,,Wind1,,Wind1,
time,status,PA1M_AVG,status,PR1M_SUM,status,RH1M_AVG,status,SR1M_AVG,status,TA1M_AVG,status,W1dAve1m,status,W1sAve1m,
2008-03-28, 00:00:00,VALID,917.244,VALID,0,VALID,100,VALID,0.0339617,VALID,18.6111,VALID,122,VALID,0.768415,
2008-03-28, 00:01:00,VALID,917.256,VALID,0,VALID,100,VALID,0.0679233,VALID,18.6376,VALID,130,VALID,0.671503,
2008-03-28, 00:02:00,VALID,917.257,VALID,0,VALID,100,VALID,0.0339617,VALID,18.6573,VALID,133,VALID,0.584666,
2008-03-28, 00:03:00,VALID,917.245,VALID,0,VALID,100,VALID,0.0679233,VALID,18.6378,VALID,138,VALID,0.60637,
2008-03-28, 00:04:00,VALID,917.227,VALID,0,VALID,100,VALID,0.0849042,VALID,18.6438,VALID,146,VALID,0.899132,
2008-03-28, 00:05:00,VALID,917.202,VALID,0,VALID,100,VALID,-0.0339617,VALID,18.6939,VALID,146,VALID,0.673735,
2008-03-28, 00:06:00,VALID,917.184,VALID,0,VALID,100,VALID,-0.0339617,VALID,18.6872,VALID,149,VALID,0.617188,
2008-03-28, 00:07:00,VALID,917.173,VALID,0,VALID,100,VALID,-0.0169808,VALID,18.6716,VALID,146,VALID,0.030878,
2008-03-28, 00:08:00,VALID,917.169,VALID,0,VALID,100,VALID,-0.0509425,VALID,18.6258,VALID,146,VALID,0.351753,
2008-03-28, 00:09:00,VALID,917.154,VALID,0,VALID,100,VALID,-0.0849042,VALID,18.5933,VALID,146,VALID,0.16654,
2008-03-28, 00:10:00,VALID,917.152,VALID,0,VALID,100,VALID,-0.0679233,VALID,18.5546,VALID,152,VALID,0.502257,
2008-03-28, 00:11:00,VALID,917.116,VALID,0,VALID,100,VALID,-0.101885,VALID,18.5254,VALID,162,VALID,0.280035,
2008-03-28, 00:12:00,VALID,917.093,VALID,0,VALID,100,VALID,-0.0339617,VALID,18.4963,VALID,162,VALID,0,
2008-03-28, 00:13:00,VALID,917.077,VALID,0,VALID,100,VALID,-0.0679233,VALID,18.4738,VALID,162,VALID,0,
2008-03-28, 00:14:00,VALID,917.032,VALID,0,VALID,100,VALID,-0.0849042,VALID,18.4865,VALID,163,VALID,0,
2008-03-28, 00:15:00,VALID,916.997,VALID,0,VALID,100,VALID,-0.0679233,VALID,18.4895,VALID,162,VALID,0,
2008-03-28, 00:16:00,VALID,916.988,VALID,0,VALID,100,VALID,-0.0339617,VALID,18.4833,VALID,153,VALID,0,
2008-03-28, 00:17:00,VALID,916.976,VALID,0,VALID,100,VALID,-0.0509425,VALID,18.4698,VALID,160,VALID,0,
2008-03-28, 00:18:00,VALID,916.962,VALID,0,VALID,100,VALID,-0.0849042,VALID,18.4708,VALID,155,VALID,0,
2008-03-28, 00:19:00,VALID,916.936,VALID,0,VALID,100,VALID,-0.0849042,VALID,18.4641,VALID,149,VALID,0,
2008-03-28, 00:20:00,VALID,916.923,VALID,0,VALID,100,VALID,-0.0849042,VALID,18.4416,VALID,137,VALID,0,
2008-03-28, 00:21:00,VALID,916.917,VALID,0,VALID,100,VALID,-0.0679233,VALID,18.4256,VALID,133,VALID,0,
2008-03-28, 00:22:00,VALID,916.893,VALID,0,VALID,100,VALID,-0.0679233,VALID,18.3927,VALID,130,VALID,0,
2008-03-28, 00:23:00,VALID,916.901,VALID,0,VALID,100,VALID,-0.0339617,VALID,18.4256,VALID,133,VALID,0,
2008-03-28, 00:24:00,VALID,916.876,VALID,0,VALID,100,VALID,-0.0169808,VALID,18.3922,VALID,140,VALID,0,
2008-03-28, 00:25:00,VALID,916.863,VALID,0,VALID,100,VALID,-0.0509425,VALID,18.3922,VALID,140,VALID,0,
2008-03-28, 00:26:00,VALID,916.844,VALID,0,VALID,100,VALID,-0.0169808,VALID,18.3989,VALID,140,VALID,0,
2008-03-28, 00:27:00,VALID,916.827,VALID,0,VALID,100,VALID,-0.0339617,VALID,18.4314,VALID,140,VALID,0,
2008-03-28, 00:28:00,VALID,916.819,VALID,0,VALID,100,VALID,-0.0509425,VALID,18.4643,VALID,142,VALID,0,
2008-03-28, 00:29:00,VALID,916.801,VALID,0,VALID,100,VALID,-0.0509425,VALID,18.5157,VALID,142,VALID,0,
2008-03-28, 00:30:00,VALID,916.796,VALID,0,VALID,100,VALID,0,VALID,18.5315,VALID,138,VALID,0,
2008-03-28, 00:31:00,VALID,916.787,VALID,0,VALID,100,VALID,-0.0509425,VALID,18.5579,VALID,137,VALID,0,
2008-03-28, 00:32:00,VALID,916.798,VALID,0,VALID,100,VALID,-0.0169808,VALID,18.5544,VALID,136,VALID,0,
2008-03-28, 00:33:00,VALID,916.801,VALID,0,VALID,100,VALID,-0.0169808,VALID,18.5544,VALID,138,VALID,0,
2008-03-28, 00:34:00,VALID,916.807,VALID,0,VALID,100,VALID,-0.0169808,VALID,18.5574,VALID,153,VALID,0,
2008-03-28, 00:35:00,VALID,916.798,VALID,0,VALID,100,VALID,-0.0169808,VALID,18.5743,VALID,155,VALID,0,
2008-03-28, 00:36:00,VALID,916.799,VALID,0,VALID,100,VALID,-0.0169808,VALID,18.5349,VALID,149,VALID,0,
2008-03-28, 00:37:00,VALID,916.787,VALID,0,VALID,100,VALID,-0.0169808,VALID,18.4993,VALID,142,VALID,0,
2008-03-28, 00:38:00,VALID,916.765,VALID,0,VALID,100,VALID,-0.0339617,VALID,18.4673,VALID,140,VALID,0,
2008-03-28, 00:39:00,VALID,916.755,VALID,0,VALID,100,VALID,0.0169808,VALID,18.4376,VALID,120,VALID,0,
2008-03-28, 00:40:00,VALID,916.749,VALID,0,VALID,100,VALID,-0.0169808,VALID,18.3985,VALID,116,VALID,0,
2008-03-28, 00:41:00,VALID,916.764,VALID,0,VALID,100,VALID,0.0169808,VALID,18.379,VALID,120,VALID,0,
2008-03-28, 00:42:00,VALID,916.783,VALID,0,VALID,100,VALID,-0.0509425,VALID,18.3503,VALID,124,VALID,0,
2008-03-28, 00:43:00,VALID,916.778,VALID,0,VALID,100,VALID,0,VALID,18.3343,VALID,135,VALID,0,
2008-03-28, 00:44:00,VALID,916.798,VALID,0,VALID,100,VALID,0,VALID,18.3373,VALID,138,VALID,0,
2008-03-28, 00:45:00,VALID,916.784,VALID,0,VALID,100,VALID,0,VALID,18.3313,VALID,138,VALID,0,
2008-03-28, 00:46:00,VALID,916.769,VALID,0,VALID,100,VALID,-0.0169808,VALID,18.3244,VALID,125,VALID,0,
2008-03-28, 00:47:00,VALID,916.764,VALID,0,VALID,100,VALID,0,VALID,18.3146,VALID,116,VALID,0,
2008-03-28, 00:48:00,VALID,916.754,VALID,0,VALID,100,VALID,-0.0169808,VALID,18.2852,VALID,110,VALID,0,
2008-03-28, 00:49:00,VALID,916.749,VALID,0,VALID,100,VALID,-0.0339617,VALID,18.2884,VALID,106,VALID,0,
2008-03-28, 00:50:00,VALID,916.769,VALID,0,VALID,100,VALID,-0.0339617,VALID,18.3081,VALID,110,VALID,0,
2008-03-28, 00:51:00,VALID,916.78,VALID,0,VALID,100,VALID,-0.0169808,VALID,18.3174,VALID,117,VALID,0,
2008-03-28, 00:52:00,VALID,916.787,VALID,0,VALID,100,VALID,-0.0339617,VALID,18.3239,VALID,122,VALID,0,
2008-03-28, 00:53:00,VALID,916.778,VALID,0,VALID,100,VALID,-0.0169808,VALID,18.3403,VALID,124,VALID,0,
2008-03-28, 00:54:00,VALID,916.764,VALID,0,VALID,100,VALID,-0.0169808,VALID,18.3466,VALID,124,VALID,0,
2008-03-28, 00:55:00,VALID,916.749,VALID,0,VALID,100,VALID,-0.0169808,VALID,18.3401,VALID,124,VALID,0,
2008-03-28, 00:56:00,VALID,916.726,VALID,0,VALID,100,VALID,-0.0169808,VALID,18.3762,VALID,124,VALID,0,
2008-03-28, 00:57:00,VALID,916.707,VALID,0,VALID,100,VALID,-0.0169808,VALID,18.3825,VALID,128,VALID,0,
2008-03-28, 00:58:00,VALID,916.678,VALID,0,VALID,100,VALID,-0.0169808,VALID,18.4084,VALID,119,VALID,0,
2008-03-28, 00:59:00,VALID,916.655,VALID,0,VALID,100,VALID,-0.0339617,VALID,18.3925,VALID,116,VALID,0,
2008-03-28, 01:00:00,VALID,916.643,VALID,0,VALID,100,VALID,-0.0339617,VALID,18.3762,VALID,110,VALID,0,
2008-03-28, 01:01:00,VALID,916.655,VALID,0,VALID,100,VALID,-0.0169808,VALID,18.363,VALID,108,VALID,0,
2008-03-28, 01:02:00,VALID,916.656,VALID,0,VALID,100,VALID,0,VALID,18.3568,VALID,99,VALID,0,
2008-03-28, 01:03:00,VALID,916.63,VALID,0,VALID,100,VALID,-0.0169808,VALID,18.2755,VALID,101,VALID,0,
2008-03-28, 01:04:00,VALID,916.624,VALID,0,VALID,100,VALID,-0.0339617,VALID,18.2722,VALID,120,VALID,0,
2008-03-28, 01:05:00,VALID,916.596,VALID,0,VALID,100,VALID,-0.0169808,VALID,18.2593,VALID,116,VALID,0,
2008-03-28, 01:06:00,VALID,916.586,VALID,0,VALID,100,VALID,-0.0169808,VALID,18.2266,VALID,109,VALID,0,
2008-03-28, 01:07:00,VALID,916.576,VALID,0,VALID,100,VALID,0,VALID,18.1874,VALID,104,VALID,0,
2008-03-28, 01:08:00,VALID,916.572,VALID,0,VALID,100,VALID,0.0169808,VALID,18.1715,VALID,106,VALID,0,
2008-03-28, 01:09:00,VALID,916.583,VALID,0,VALID,100,VALID,0,VALID,18.152,VALID,108,VALID,0,
2008-03-28, 01:10:00,VALID,916.596,VALID,0,VALID,100,VALID,0,VALID,18.1066,VALID,109,VALID,0,
2008-03-28, 01:11:00,VALID,916.603,VALID,0,VALID,100,VALID,-0.0339617,VALID,18.0577,VALID,118,VALID,0,
2008-03-28, 01:12:00,VALID,916.595,VALID,0,VALID,100,VALID,0.0169808,VALID,18.035,VALID,123,VALID,0,
2008-03-28, 01:13:00,VALID,916.586,VALID,0,VALID,100,VALID,-0.0169808,VALID,18.032,VALID,114,VALID,0,
2008-03-28, 01:14:00,VALID,916.577,VALID,0,VALID,100,VALID,0,VALID,18.045,VALID,118,VALID,0,
2008-03-28, 01:15:00,VALID,916.575,VALID,0,VALID,100,VALID,-0.0169808,VALID,18.0612,VALID,130,VALID,0,
2008-03-28, 01:16:00,VALID,916.568,VALID,0,VALID,100,VALID,0,VALID,18.0709,VALID,139,VALID,0.173363,
2008-03-28, 01:17:00,VALID,916.562,VALID,0,VALID,100,VALID,0,VALID,18.0385,VALID,142,VALID,1.0774,
2008-03-28, 01:18:00,VALID,916.559,VALID,0,VALID,100,VALID,0,VALID,18.0223,VALID,142,VALID,1.15425,
2008-03-28, 01:19:00,VALID,916.543,VALID,0,VALID,100,VALID,0,VALID,17.9998,VALID,144,VALID,0.911156,
2008-03-28, 01:20:00,VALID,916.536,VALID,0,VALID,100,VALID,0,VALID,17.9669,VALID,154,VALID,0.875558,
2008-03-28, 01:21:00,VALID,916.527,VALID,0,VALID,100,VALID,0.0339617,VALID,17.9769,VALID,157,VALID,0.982088,
2008-03-28, 01:22:00,VALID,916.53,VALID,0,VALID,100,VALID,0,VALID,17.9732,VALID,143,VALID,0.677148,
2008-03-28, 01:23:00,VALID,916.535,VALID,0,VALID,100,VALID,0.0169808,VALID,17.9639,VALID,133,VALID,0.539249,
2008-03-28, 01:24:00,VALID,916.529,VALID,0,VALID,100,VALID,-0.0509425,VALID,17.9421,VALID,98,VALID,0.474479,
2008-03-28, 01:25:00,VALID,916.509,VALID,0,VALID,100,VALID,-0.0509425,VALID,17.9023,VALID,93,VALID,0.204723,
2008-03-28, 01:26:00,VALID,916.487,VALID,0,VALID,100,VALID,0,VALID,17.896,VALID,98,VALID,0,
2008-03-28, 01:27:00,VALID,916.466,VALID,0,VALID,100,VALID,0,VALID,17.909,VALID,115,VALID,0,
2008-03-28, 01:28:00,VALID,916.44,VALID,0,VALID,100,VALID,-0.0169808,VALID,17.9185,VALID,123,VALID,0,
2008-03-28, 01:29:00,VALID,916.425,VALID,0,VALID,100,VALID,-0.0339617,VALID,17.922,VALID,135,VALID,0,
2008-03-28, 01:30:00,VALID,916.412,VALID,0,VALID,100,VALID,-0.0679233,VALID,17.938,VALID,140,VALID,0.287538,
2008-03-28, 01:31:00,VALID,916.388,VALID,0,VALID,100,VALID,-0.0339617,VALID,17.9607,VALID,148,VALID,0.722656,
2008-03-28, 01:32:00,VALID,916.375,VALID,0,VALID,100,VALID,0,VALID,17.9771,VALID,154,VALID,0.751999,
2008-03-28, 01:33:00,VALID,916.354,VALID,0,VALID,100,VALID,0.0169808,VALID,17.9769,VALID,157,VALID,0.854469,
2008-03-28, 01:34:00,VALID,916.352,VALID,0,VALID,100,VALID,0.0169808,VALID,17.9801,VALID,157,VALID,0.896532,
2008-03-28, 01:35:00,VALID,916.342,VALID,0,VALID,100,VALID,0,VALID,17.9604,VALID,157,VALID,0.829055,
2008-03-28, 01:36:00,VALID,916.344,VALID,0,VALID,100,VALID,-0.0169808,VALID,17.9704,VALID,156,VALID,1.00298,
2008-03-28, 01:37:00,VALID,916.344,VALID,0,VALID,100,VALID,0,VALID,17.9963,VALID,155,VALID,0.852805,
2008-03-28, 01:38:00,VALID,916.336,VALID,0,VALID,100,VALID,-0.0169808,VALID,17.9929,VALID,150,VALID,0.768293,
2008-03-28, 01:39:00,VALID,916.331,VALID,0,VALID,100,VALID,0,VALID,17.9963,VALID,145,VALID,0.75918,
2008-03-28, 01:40:00,VALID,916.328,VALID,0,VALID,100,VALID,0,VALID,17.9899,VALID,154,VALID,0.725195,
2008-03-28, 01:41:00,VALID,916.318,VALID,0,VALID,100,VALID,-0.0169808,VALID,18.0095,VALID,162,VALID,0.719599,
2008-03-28, 01:42:00,VALID,916.288,VALID,0,VALID,100,VALID,0,VALID,18.0156,VALID,157,VALID,0.837462,
2008-03-28, 01:43:00,VALID,916.279,VALID,0,VALID,100,VALID,0,VALID,18.0188,VALID,157,VALID,0.724746,
2008-03-28, 01:44:00,VALID,916.263,VALID,0,VALID,100,VALID,-0.0169808,VALID,18.0158,VALID,153,VALID,0.745561,
2008-03-28, 01:45:00,VALID,916.262,VALID,0,VALID,100,VALID,-0.0169808,VALID,18.0255,VALID,154,VALID,0.737645,
2008-03-28, 01:46:00,VALID,916.259,VALID,0,VALID,100,VALID,0.0339617,VALID,18.0288,VALID,148,VALID,0.654251,
2008-03-28, 01:47:00,VALID,916.261,VALID,0,VALID,100,VALID,0,VALID,18.0383,VALID,158,VALID,0.621626,
2008-03-28, 01:48:00,VALID,916.261,VALID,0,VALID,100,VALID,0,VALID,18.058,VALID,158,VALID,0.80785,
2008-03-28, 01:49:00,VALID,916.254,VALID,0,VALID,100,VALID,0,VALID,18.0807,VALID,155,VALID,0.501736,
2008-03-28, 01:50:00,VALID,916.232,VALID,0,VALID,100,VALID,-0.0849042,VALID,18.0816,VALID,153,VALID,0,
2008-03-28, 01:51:00,VALID,916.209,VALID,0,VALID,100,VALID,-0.101885,VALID,18.0885,VALID,152,VALID,0,
2008-03-28, 01:52:00,VALID,916.193,VALID,0,VALID,100,VALID,-0.118866,VALID,18.0561,VALID,145,VALID,0.692951,
2008-03-28, 01:53:00,VALID,916.185,VALID,0,VALID,100,VALID,-0.135847,VALID,18.0496,VALID,143,VALID,0.832961,
2008-03-28, 01:54:00,VALID,916.185,VALID,0,VALID,100,VALID,-0.101885,VALID,18.0818,VALID,143,VALID,0.69549,
2008-03-28, 01:55:00,VALID,916.186,VALID,0,VALID,100,VALID,-0.118866,VALID,18.0883,VALID,146,VALID,0.603237,
2008-03-28, 01:56:00,VALID,916.207,VALID,0,VALID,100,VALID,-0.118866,VALID,18.1047,VALID,149,VALID,0.316778,
2008-03-28, 01:57:00,VALID,916.204,VALID,0,VALID,100,VALID,-0.101885,VALID,18.098,VALID,148,VALID,0,
2008-03-28, 01:58:00,VALID,916.206,VALID,0,VALID,100,VALID,-0.101885,VALID,18.082,VALID,146,VALID,0,
2008-03-28, 01:59:00,VALID,916.197,VALID,0,VALID,100,VALID,-0.101885,VALID,18.0042,VALID,146,VALID,0,
2008-03-28, 02:00:00,VALID,916.183,VALID,0,VALID,100,VALID,-0.101885,VALID,17.9,VALID,146,VALID,0,
2008-03-28, 02:01:00,VALID,916.165,VALID,0,VALID,100,VALID,-0.101885,VALID,17.8485,VALID,142,VALID,0,
2008-03-28, 02:02:00,VALID,916.141,VALID,0,VALID,100,VALID,-0.101885,VALID,17.8258,VALID,137,VALID,0,
2008-03-28, 02:03:00,VALID,916.129,VALID,0,VALID,100,VALID,-0.101885,VALID,17.8094,VALID,137,VALID,0,
2008-03-28, 02:04:00,VALID,916.095,VALID,0,VALID,100,VALID,-0.135847,VALID,17.8714,VALID,137,VALID,0,
2008-03-28, 02:05:00,VALID,916.078,VALID,0,VALID,100,VALID,-0.0509425,VALID,17.9187,VALID,131,VALID,0,
2008-03-28, 02:06:00,VALID,916.052,VALID,0,VALID,100,VALID,0,VALID,17.9412,VALID,129,VALID,0,
2008-03-28, 02:07:00,VALID,916.037,VALID,0,VALID,100,VALID,0,VALID,17.9412,VALID,129,VALID,0,
2008-03-28, 02:08:00,VALID,916.028,VALID,0,VALID,100,VALID,0,VALID,17.941,VALID,129,VALID,0,
2008-03-28, 02:09:00,VALID,916.023,VALID,0,VALID,100,VALID,0,VALID,17.9604,VALID,132,VALID,0,
2008-03-28, 02:10:00,VALID,916.006,VALID,0,VALID,100,VALID,-0.0339617,VALID,18.0093,VALID,132,VALID,0,
2008-03-28, 02:11:00,VALID,916.004,VALID,0,VALID,100,VALID,-0.0169808,VALID,18.0355,VALID,144,VALID,0,
2008-03-28, 02:12:00,VALID,915.986,VALID,0,VALID,100,VALID,-0.0339617,VALID,18.058,VALID,145,VALID,0,
2008-03-28, 02:13:00,VALID,915.984,VALID,0,VALID,100,VALID,0,VALID,18.0675,VALID,145,VALID,0,
2008-03-28, 02:14:00,VALID,915.954,VALID,0,VALID,100,VALID,0,VALID,18.0712,VALID,145,VALID,0,
2008-03-28, 02:15:00,VALID,915.946,VALID,0,VALID,100,VALID,0,VALID,18.1098,VALID,145,VALID,0,
2008-03-28, 02:16:00,VALID,915.948,VALID,0,VALID,100,VALID,-0.0169808,VALID,18.1196,VALID,145,VALID,0,
2008-03-28, 02:17:00,VALID,915.952,VALID,0,VALID,100,VALID,0,VALID,18.0742,VALID,145,VALID,0,
2008-03-28, 02:18:00,VALID,915.961,VALID,0,VALID,100,VALID,0,VALID,18.0614,VALID,145,VALID,0,
2008-03-28, 02:19:00,VALID,915.968,VALID,0,VALID,100,VALID,0,VALID,18.0612,VALID,143,VALID,0,
2008-03-28, 02:20:00,VALID,915.962,VALID,0,VALID,100,VALID,0,VALID,18.0677,VALID,143,VALID,0.538881,
2008-03-28, 02:21:00,VALID,915.951,VALID,0,VALID,100,VALID,-0.0509425,VALID,18.0508,VALID,142,VALID,0.791481,
2008-03-28, 02:22:00,VALID,915.938,VALID,0,VALID,100,VALID,0,VALID,18.0545,VALID,138,VALID,0.780086,
2008-03-28, 02:23:00,VALID,915.932,VALID,0,VALID,100,VALID,-0.0169808,VALID,18.035,VALID,137,VALID,0.801962,
2008-03-28, 02:24:00,VALID,915.935,VALID,0,VALID,100,VALID,-0.0169808,VALID,18.0126,VALID,136,VALID,0.622337,
2008-03-28, 02:25:00,VALID,915.936,VALID,0,VALID,100,VALID,0,VALID,17.9894,VALID,137,VALID,0.372456,
2008-03-28, 02:26:00,VALID,915.961,VALID,0,VALID,100,VALID,0,VALID,17.9609,VALID,137,VALID,0,
2008-03-28, 02:27:00,VALID,915.969,VALID,0,VALID,100,VALID,-0.0169808,VALID,17.925,VALID,138,VALID,0,
2008-03-28, 02:28:00,VALID,915.989,VALID,0,VALID,100,VALID,0,VALID,17.9088,VALID,138,VALID,0.0597098,
2008-03-28, 02:29:00,VALID,915.987,VALID,0,VALID,100,VALID,-0.0169808,VALID,17.8861,VALID,138,VALID,0.00533537,
2008-03-28, 02:30:00,VALID,915.988,VALID,0,VALID,100,VALID,0,VALID,17.8859,VALID,138,VALID,0,
2008-03-28, 02:31:00,VALID,915.979,VALID,0,VALID,100,VALID,-0.0169808,VALID,17.8567,VALID,138,VALID,0,
2008-03-28, 02:32:00,VALID,915.956,VALID,0,VALID,100,VALID,-0.0169808,VALID,17.8595,VALID,138,VALID,0,
2008-03-28, 02:33:00,VALID,915.934,VALID,0,VALID,100,VALID,0,VALID,17.8502,VALID,138,VALID,0,
2008-03-28, 02:34:00,VALID,915.906,VALID,0,VALID,100,VALID,-0.0169808,VALID,17.8405,VALID,138,VALID,0,
2008-03-28, 02:35:00,VALID,915.885,VALID,0,VALID,100,VALID,-0.0169808,VALID,17.8115,VALID,138,VALID,0,
2008-03-28, 02:36:00,VALID,915.873,VALID,0,VALID,100,VALID,0,VALID,17.7784,VALID,140,VALID,0,
2008-03-28, 02:37:00,VALID,915.849,VALID,0,VALID,100,VALID,0,VALID,17.8141,VALID,141,VALID,0,
2008-03-28, 02:38:00,VALID,915.82,VALID,0,VALID,100,VALID,-0.0169808,VALID,17.8986,VALID,138,VALID,0,
2008-03-28, 02:39:00,VALID,915.825,VALID,0,VALID,100,VALID,0,VALID,17.9929,VALID,128,VALID,0,
2008-03-28, 02:40:00,VALID,915.816,VALID,0,VALID,100,VALID,0,VALID,18.0253,VALID,127,VALID,0,
2008-03-28, 02:41:00,VALID,915.81,VALID,0,VALID,100,VALID,0.0169808,VALID,18.0121,VALID,122,VALID,0.514757,
2008-03-28, 02:42:00,VALID,915.822,VALID,0,VALID,100,VALID,-0.0169808,VALID,18.0253,VALID,119,VALID,0.979651,
2008-03-28, 02:43:00,VALID,915.818,VALID,0,VALID,100,VALID,0,VALID,18.0123,VALID,115,VALID,0.938058,
2008-03-28, 02:44:00,VALID,915.828,VALID,0,VALID,100,VALID,0,VALID,18.035,VALID,113,VALID,1.12376,
2008-03-28, 02:45:00,VALID,915.809,VALID,0,VALID,100,VALID,0,VALID,18.0276,VALID,110,VALID,0.86814,
2008-03-28, 02:46:00,VALID,915.806,VALID,0,VALID,100,VALID,0,VALID,18.0089,VALID,113,VALID,1.09022,
2008-03-28, 02:47:00,VALID,915.804,VALID,0,VALID,100,VALID,0,VALID,17.9732,VALID,115,VALID,0.923363,
2008-03-28, 02:48:00,VALID,915.8,VALID,0,VALID,100,VALID,0,VALID,17.9442,VALID,123,VALID,0.96733,
2008-03-28, 02:49:00,VALID,915.772,VALID,0,VALID,100,VALID,0,VALID,17.8988,VALID,122,VALID,0.891555,
2008-03-28, 02:50:00,VALID,915.765,VALID,0,VALID,100,VALID,0.0169808,VALID,17.8532,VALID,135,VALID,1.11808,
2008-03-28, 02:51:00,VALID,915.755,VALID,0,VALID,100,VALID,-0.0169808,VALID,17.8076,VALID,137,VALID,0.873884,
2008-03-28, 02:52:00,VALID,915.749,VALID,0,VALID,100,VALID,0.0169808,VALID,17.7788,VALID,138,VALID,0.37282,
2008-03-28, 02:53:00,VALID,915.756,VALID,0,VALID,100,VALID,0,VALID,17.7497,VALID,138,VALID,0,
2008-03-28, 02:54:00,VALID,915.737,VALID,0,VALID,100,VALID,-0.0169808,VALID,17.7237,VALID,138,VALID,0,
2008-03-28, 02:55:00,VALID,915.74,VALID,0,VALID,100,VALID,-0.0169808,VALID,17.6878,VALID,138,VALID,0,
2008-03-28, 02:56:00,VALID,915.724,VALID,0,VALID,100,VALID,0,VALID,17.6228,VALID,138,VALID,0,
2008-03-28, 02:57:00,VALID,915.688,VALID,0,VALID,100,VALID,0.0169808,VALID,17.5447,VALID,138,VALID,0,
2008-03-28, 02:58:00,VALID,915.663,VALID,0,VALID,100,VALID,0,VALID,17.5095,VALID,138,VALID,0,
2008-03-28, 02:59:00,VALID,915.63,VALID,0,VALID,100,VALID,0.0169808,VALID,17.4836,VALID,138,VALID,0,
2008-03-28, 03:00:00,VALID,915.615,VALID,0,VALID,100,VALID,-0.0169808,VALID,17.4578,VALID,138,VALID,0,
2008-03-28, 03:01:00,VALID,915.598,VALID,0,VALID,100,VALID,0,VALID,17.4254,VALID,138,VALID,0,
2008-03-28, 03:02:00,VALID,915.61,VALID,0,VALID,100,VALID,0,VALID,17.3995,VALID,138,VALID,0,
2008-03-28, 03:03:00,VALID,915.615,VALID,0,VALID,100,VALID,0,VALID,17.3863,VALID,138,VALID,0,
2008-03-28, 03:04:00,VALID,915.63,VALID,0,VALID,100,VALID,0.0169808,VALID,17.3569,VALID,138,VALID,0,
2008-03-28, 03:05:00,VALID,915.637,VALID,0,VALID,100,VALID,-0.0169808,VALID,17.3249,VALID,138,VALID,0,
2008-03-28, 03:06:00,VALID,915.639,VALID,0,VALID,100,VALID,-0.0509425,VALID,17.2765,VALID,138,VALID,0,
2008-03-28, 03:07:00,VALID,915.653,VALID,0,VALID,100,VALID,-0.0339617,VALID,17.2337,VALID,139,VALID,0,
2008-03-28, 03:08:00,VALID,915.664,VALID,0,VALID,100,VALID,-0.0169808,VALID,17.2668,VALID,146,VALID,0,
2008-03-28, 03:09:00,VALID,915.695,VALID,0,VALID,100,VALID,-0.0169808,VALID,17.2797,VALID,156,VALID,0,
2008-03-28, 03:10:00,VALID,915.705,VALID,0,VALID,100,VALID,-0.0509425,VALID,17.3085,VALID,156,VALID,0,
2008-03-28, 03:11:00,VALID,915.706,VALID,0,VALID,100,VALID,-0.0339617,VALID,17.3569,VALID,156,VALID,0,
2008-03-28, 03:12:00,VALID,915.687,VALID,0,VALID,100,VALID,-0.0339617,VALID,17.3997,VALID,156,VALID,0,
2008-03-28, 03:13:00,VALID,915.654,VALID,0,VALID,100,VALID,-0.0169808,VALID,17.415,VALID,156,VALID,0,
2008-03-28, 03:14:00,VALID,915.652,VALID,0,VALID,100,VALID,-0.0339617,VALID,17.4481,VALID,156,VALID,0,
2008-03-28, 03:15:00,VALID,915.645,VALID,0,VALID,100,VALID,0.0169808,VALID,17.4509,VALID,156,VALID,0,
2008-03-28, 03:16:00,VALID,915.664,VALID,0,VALID,100,VALID,-0.0169808,VALID,17.4903,VALID,154,VALID,0,
2008-03-28, 03:17:00,VALID,915.688,VALID,0,VALID,100,VALID,0,VALID,17.4898,VALID,139,VALID,0,
2008-03-28, 03:18:00,VALID,915.688,VALID,0,VALID,100,VALID,-0.0169808,VALID,17.4544,VALID,139,VALID,0,
2008-03-28, 03:19:00,VALID,915.695,VALID,0,VALID,100,VALID,-0.0339617,VALID,17.399,VALID,140,VALID,0,
2008-03-28, 03:20:00,VALID,915.681,VALID,0,VALID,100,VALID,-0.0169808,VALID,17.3606,VALID,151,VALID,0.325648,
2008-03-28, 03:21:00,VALID,915.675,VALID,0,VALID,100,VALID,0,VALID,17.4122,VALID,156,VALID,0.702762,
2008-03-28, 03:22:00,VALID,915.647,VALID,0,VALID,100,VALID,-0.0509425,VALID,17.4808,VALID,150,VALID,0.706692,
2008-03-28, 03:23:00,VALID,915.617,VALID,0,VALID,100,VALID,-0.0339617,VALID,17.4995,VALID,140,VALID,0.852834,
2008-03-28, 03:24:00,VALID,915.615,VALID,0,VALID,100,VALID,0,VALID,17.5843,VALID,134,VALID,0.964134,
2008-03-28, 03:25:00,VALID,915.602,VALID,0,VALID,100,VALID,-0.0339617,VALID,17.5973,VALID,134,VALID,0.874047,
2008-03-28, 03:26:00,VALID,915.615,VALID,0,VALID,100,VALID,-0.0509425,VALID,17.5975,VALID,134,VALID,0.682617,
2008-03-28, 03:27:00,VALID,915.622,VALID,0,VALID,100,VALID,0,VALID,17.5713,VALID,134,VALID,0.709032,
2008-03-28, 03:28:00,VALID,915.645,VALID,0,VALID,100,VALID,-0.0169808,VALID,17.5973,VALID,134,VALID,0.789757,
2008-03-28, 03:29:00,VALID,915.623,VALID,0,VALID,100,VALID,0,VALID,17.5776,VALID,134,VALID,0.990104,
2008-03-28, 03:30:00,VALID,915.613,VALID,0,VALID,100,VALID,-0.0169808,VALID,17.5875,VALID,138,VALID,1.10884,
2008-03-28, 03:31:00,VALID,915.598,VALID,0,VALID,100,VALID,-0.0169808,VALID,17.5908,VALID,135,VALID,1.24047,
2008-03-28, 03:32:00,VALID,915.6,VALID,0,VALID,100,VALID,-0.0339617,VALID,17.5973,VALID,129,VALID,1.09282,
2008-03-28, 03:33:00,VALID,915.62,VALID,0,VALID,100,VALID,0,VALID,17.6072,VALID,127,VALID,1.13091,
2008-03-28, 03:34:00,VALID,915.648,VALID,0,VALID,100,VALID,0,VALID,17.5938,VALID,131,VALID,0.971484,
2008-03-28, 03:35:00,VALID,915.665,VALID,0,VALID,100,VALID,-0.0169808,VALID,17.5968,VALID,127,VALID,1.06161,
2008-03-28, 03:36:00,VALID,915.693,VALID,0,VALID,100,VALID,0,VALID,17.5579,VALID,118,VALID,0.906977,
2008-03-28, 03:37:00,VALID,915.676,VALID,0,VALID,100,VALID,0,VALID,17.5354,VALID,136,VALID,0.998884,
2008-03-28, 03:38:00,VALID,915.682,VALID,0,VALID,100,VALID,-0.0339617,VALID,17.5391,VALID,134,VALID,1.06072,
2008-03-28, 03:39:00,VALID,915.687,VALID,0,VALID,100,VALID,-0.0849042,VALID,17.5162,VALID,141,VALID,1.01767,
2008-03-28, 03:40:00,VALID,915.691,VALID,0,VALID,100,VALID,-0.0339617,VALID,17.4931,VALID,141,VALID,0.809261,
2008-03-28, 03:41:00,VALID,915.702,VALID,0,VALID,100,VALID,0,VALID,17.4838,VALID,141,VALID,0.37309,
2008-03-28, 03:42:00,VALID,915.703,VALID,0,VALID,100,VALID,-0.0339617,VALID,17.4511,VALID,143,VALID,0,
2008-03-28, 03:43:00,VALID,915.689,VALID,0,VALID,100,VALID,-0.0509425,VALID,17.4645,VALID,149,VALID,0.296875,
2008-03-28, 03:44:00,VALID,915.658,VALID,0,VALID,100,VALID,-0.0339617,VALID,17.4611,VALID,149,VALID,0.861861,
2008-03-28, 03:45:00,VALID,915.634,VALID,0,VALID,100,VALID,-0.0169808,VALID,17.4643,VALID,149,VALID,0.689174,
2008-03-28, 03:46:00,VALID,915.612,VALID,0,VALID,100,VALID,-0.0339617,VALID,17.4416,VALID,152,VALID,1.15304,
2008-03-28, 03:47:00,VALID,915.605,VALID,0,VALID,100,VALID,0,VALID,17.4548,VALID,159,VALID,1.03487,
2008-03-28, 03:48:00,VALID,915.619,VALID,0,VALID,100,VALID,-0.0169808,VALID,17.4289,VALID,159,VALID,0.545099,